Probability
0 0 0 0 0 0 0 0 0 0 0 0 0 0 0 0 0 0 0 0 0 0 0 0 0 0 0 0 0 0 0 0 0 0 0 0 0 0 0 0 0 0 0 0
0 0 0 0 0 0 0 0 0 0 0 0 0 0 0 0 0 0 0 0 0 0 0 0 0 0 0 0 0 0 0 0 0 0 0 0 0 0 0 0 0 0 0 0
0 0 0 0 0 0 0 0 0 0 0 0 0 0 0 0 0 0 0 0 0 0 0 0 0 0 0 0 0 0 0 0 0 0 0 0 0 0 0 0 0 0 0 0
0 0 0 0 0 0 0 0 0 0 0 0 0 0 0 0 0 0 0 0 0 0 0 0 0 0 0 0 0 0 0 0 0 0 0 0 0 0 0 0 0 0 0 0
0 0 0 0 0 0 0 0 0 0 0 0 0 0 0 0 0 0 0 0 0 0 0 0 0 0 0 0 0 0 0 0 0 0 0 0 0 0 0 0 0 0 0 0
0 0 0 0 0 0 0 0 0 0 0 0 0 0 0 0 0 0 0 0 0 0 0 0 0 0 0 0 0 0 0 0 0 0 0 0 0 0 0 0 0 0 0 0
0 0 0 0 0 0 0 0 0 0 0 0 0 0 0 0 0 0 0 0 0 0 0 0 0 0 0 0 0 0 0 0 0 0 0 0 0 0 0 0 0 0 0 0
0 0 0 0 0 0 0 0 0 0 0 0 0 0 0 0 0 0 0 0 0 0 0 0 0 0 0 0 0 0 0 0 0 0 0 0 0 0 0 0 0 0 0 0
0 0 0 0 0 0 0 0 0 0 0 0 0 0 0 0 0 0 0 0 0 0 0 0 0 0 0 0 0 0 0 0 0 0 0 0 0 0 0 0 0 0 0 0
0 0 0 0 0 0 0 0 0 0 0 0 0 0 0 0 0 0 0 0 0 0 0 0 0 0 0 0 0 0 0 0 0 0 0 0 0 0 0 0 0 0 0 0
0 0 0 0 0 0 0 0 0 0 0 0 0 0 0 0 0 0 0 0 0 0 0 0 0 0 0 0 0 0 0 0 0 0 0 0 0 0 0 0 0 0 0 0
0 0 0 0 0 0 0 0 0 0 0 0 0 0 0 0 0 0 0 0 0 0 0 0 0 0 0 0 0 0 0 0 0 0 0 0 0 0 0 0 0 0 0 0
0 0 0 0 0 0 0 0 0 0 0 0 0 0 0 0 0 0 0 0 0 0 0 0 0 0 0 0 0 0 0 0 0 0 0 0 0 0 0 0 0 0 0 0
0 0 0 0 0 0 0 0 0 0 0 0 0 0 0 0 0 0 0 0 0 0 0 0 0 0 0 0 0 0 0 0 0 0 0 0 0 0 0 0 0 0 0 0
0 0 0 0 0 0 0 0 0 0 0 0 0 0 0 0 0 0 0 0 0 0 0 0 0 0 0 0 0 0 0 0 0 0 0 0 0 0 0 0 0 0 0 0
0 0 0 0 0 0 0 0 0 0 0 0 0 0 0 0 0 0 0 0 0 0 0 0 0 0 0 0 0 0 0 0 0 0 0 0 0 0 0 0 0 0 0 0
0 0 0 0 0 0 0 0 0 0 0 0 0 0 0 0 0 0 0 0 0 0 0 0 0 0 0 0 0 0 0 0 0 0 0 0 0 0 0 0 0 0 0 0
0 0 0 0 0 0 0 0 0 0 0 0 0 0 0 0 0 0 0 0 0 0 0 0 0 0 0 0 0 0 0 0 0 0 0 0 0 0 0 0 0 0 0 0
0 0 0 0 0 0 0 0 0 0 0 0 0 0 0 0 0 0 0 0 0 0 0 0 0 0 0 0 0 0 0 0 0 0 0 0 0 0 0 0 0 0 0 0
0 0 0 0 0 0 0 0 0 0 0 0 0 0 0 0 0 0 0 0 0 0 0 0 0 0 0 0 0 0 0 0 0 0 0 0 0 0 0 0 0 0 0 0
0 0 0 0 0 0 0 0 0 0 0 0 0 0 0 0 0 0 0 0 0 0 0 0 0 0 0 0 0 0 0 0 0 0 0 0 0 0 0 0 0 0 0 0
0 0 0 0 0 0 0 0 0 0 0 0 0 0 0 0 0 0 0 0 0 0 0 0 0 0 0 0 0 0 0 0 0 0 0 0 0 0 0 0 0 0 0 0
0 0 0 0 0 0 0 0 0 0 0 0 0 0 0 0 0 0 0 0 0 0 0 0 0 0 0 0 0 0 0 0 0 0 0 0 0 0 0 0 0 0 0 0
0 0 0 0 0 0 0 0 0 0 0 0 0 0 0 0 0 0 0 0 0 0 0 0 0 0 0 0 0 0 0 0 0 0 0 0 0 0 0 0 0 0 0 0
0 0 0 0 0 0 0 0 0 0 0 0 0 0 0 0 0 0 0 0 0 0 0 0 0 0 0 0 0 0 0 0 0 0 0 0 0 0 0 0 0 0 0 0
0 0 0 0 0 0 0 0 0 0 0 0 0 0 0 0 0 0 0 0 0 0 0 0 0 0 0 0 0 0 0 0 0 0 0 0 0 0 0 0 0 0 0 0
0 0 0 0 0 0 0 0 0 0 0 0 0 0 0 0 0 0 0 0 0 0 0 0 0 0 0 0 0 0 0 0 0 0 0 0 0 0 0 0 0 0 0 0
Wind_Speed
5 3 6 9 11 12 12 12 13 11 11 10 10 10 8 8 7 7 8 9 11 12 11 10 8 8 7 7 6 6 6 5 5 4 3 2 1 1 2 3 5 6 6 7
4 1 2 6 9 12 12 9 9 8 11 7 6 5 6 7 8 9 9 10 10 10 10 10 10 9 8 7 7 6 7 6 5 4 3 2 1 2 3 4 5 6 6 7
6 3 1 14 12 14 9 8 11 15 14 5 5 8 8 8 9 10 9 8 9 10 10 10 9 9 9 8 6 6 7 6 5 5 3 2 1 3 4 5 6 6 7 7
5 6 14 10 2 10 11 10 10 7 6 6 7 5 5 6 8 8 8 8 8 8 8 8 7 7 7 5 6 7 7 6 6 5 3 1 1 2 4 4 5 6 8 9
6 8 10 7 4 7 9 10 10 12 11 5 4 2 3 6 7 8 8 7 7 8 7 7 7 7 6 6 6 7 8 7 6 5 3 1 2 3 3 4 6 7 7 7
7 7 11 7 4 5 6 7 7 10 10 6 8 3 6 6 7 7 7 6 7 6 5 6 7 6 7 7 7 9 8 7 6 5 3 2 2 3 3 4 6 7 8 8
8 9 10 5 5 7 7 10 4 7 7 9 9 8 4 5 7 8 8 8 7 6 6 8 6 7 8 8 10 7 6 6 5 3 2 2 2 2 3 5 6 7 9 9
7 8 13 9 10 12 9 3 6 7 8 10 9 7 5 5 7 8 8 8 8 7 8 7 6 8 9 9 6 6 6 5 4 2 1 1 2 3 4 5 6 7 8 9
12 9 1 11 10 7 6 7 7 8 8 9 8 8 7 7 8 8 9 9 8 8 8 6 6 8 10 6 7 7 6 4 3 2 2 2 3 4 4 4 5 6 6 8
5 5 3 6 4 4 6 7 7 7 7 8 8 8 8 8 8 9 9 9 8 7 8 8 7 7 6 7 8 7 6 4 3 3 3 3 3 4 4 4 5 6 6 8
4 3 2 6 9 9 8 7 6 6 6 8 8 8 9 8 9 9 9 8 7 8 10 10 7 6 6 7 8 6 5 4 4 4 4 3 4 5 6 7 8 8 8 8
9 10 8 8 9 11 10 10 10 9 8 7 9 10 9 9 9 8 8 7 6 8 8 6 6 7 6 6 7 6 5 5 4 3 3 3 4 5 10 12 16 17 17 13
8 7 8 7 7 9 10 11 10 10 10 9 8 9 9 9 8 6 6 6 6 6 5 5 6 6 6 6 6 6 5 4 3 3 3 4 4 4 6 8 11 13 12 13
7 6 6 8 9 9 10 10 8 7 8 7 7 6 6 6 5 4 4 3 3 4 4 5 5 4 4 5 5 5 5 5 4 4 4 4 4 4 4 5 7 6 8 13
12 11 10 8 7 7 7 6 6 7 7 7 6 5 5 6 5 3 3 4 5 5 4 3 3 3 3 4 5 5 5 4 4 4 4 4 4 5 5 5 6 7 7 7
9 9 10 10 12 11 8 8 9 10 8 7 6 6 5 4 5 6 5 4 4 3 3 3 3 2 3 4 5 4 4 7 5 4 4 4 4 4 5 5 5 5 6 6
9 10 11 10 14 13 11 11 11 11 8 7 7 6 7 8 7 6 4 3 3 1 1 2 4 2 2 4 5 4 4 4 6 4 4 4 4 5 5 5 5 5 6 8
15 17 14 11 11 12 11 10 9 8 7 6 8 9 8 8 7 6 5 3 2 2 3 4 4 4 4 4 4 4 4 4 4 4 4 4 5 5 5 5 5 6 6 7
12 12 11 9 8 8 7 6 6 5 6 8 9 8 7 6 6 6 4 3 1 3 3 2 4 1 2 4 5 4 4 4 4 4 4 5 5 4 5 5 5 6 6 5
6 4 3 2 2 3 4 5 7 7 6 8 10 9 8 6 6 5 3 1 3 3 2 3 3 3 4 5 5 3 4 5 5 4 4 4 5 5 5 5 6 5 5 5
0 2 5 6 6 6 6 8 9 9 7 7 8 9 8 6 5 4 3 1 2 2 3 4 3 4 4 4 4 3 4 4 5 5 5 5 5 5 5 5 5 6 5 6
3 4 6 7 8 7 6 6 7 9 8 7 7 7 7 6 4 3 3 3 3 3 2 3 3 5 6 5 4 4 4 5 5 4 5 5 5 6 6 6 6 6 5 5
4 5 7 7 8 8 7 6 6 7 7 7 6 6 5 4 3 2 1 2 2 4 3 3 5 8 8 5 4 4 5 5 5 5 5 5 6 6 6 6 6 6 6 6
5 6 6 6 6 8 7 5 5 5 5 5 4 4 4 3 1 2 2 2 3 4 3 5 8 9 4 1 2 3 4 4 5 5 5 5 5 5 6 6 6 6 6 7
6 6 6 6 5 5 6 6 6 5 4 3 3 2 2 1 1 1 1 3 4 4 3 5 8 7 2 2 3 4 4 5 5 5 5 5 6 6 6 6 6 7 7 7
5 4 4 4 4 4 4 4 3 3 3 3 2 1 1 0 1 2 2 3 4 4 4 3 4 4 3 4 4 5 5 5 6 6 6 6 6 6 6 7 8 7 7 7
5 4 4 4 4 4 3 3 3 3 2 2 1 0 1 1 1 2 2 3 3 3 3 3 3 3 4 4 4 5 5 5 5 6 6 6 6 6 7 8 7 7 7 7
Wind_Direction
223 174 170 197 202 187 195 205 220 233 231 226 210 216 212 211 210 206 209 205 202 201 199 200 203 207 210 215 208 194 189 193 196 173 153 140 91 11 346 347 344 335 331 328
216 141 188 250 226 195 209 214 224 241 250 221 211 201 208 208 205 212 217 212 205 201 199 201 205 208 211 216 208 186 189 192 174 163 158 142 54 1 347 343 338 331 327 322
212 110 45 253 215 190 196 194 188 220 237 205 203 209 215 214 210 215 215 206 199 199 201 203 205 205 210 213 194 183 188 179 171 167 163 137 23 355 342 333 328 323 317 315
148 134 227 244 170 187 201 215 205 220 236 210 210 211 216 205 204 209 203 198 198 197 202 208 206 206 206 192 182 184 182 177 171 167 163 136 18 334 323 317 317 312 308 303
166 215 258 284 207 167 181 237 213 217 234 209 140 113 268 219 203 200 197 194 196 197 198 201 205 199 183 185 183 185 189 182 172 165 162 163 305 302 303 304 302 298 292 292
167 196 228 240 171 150 113 264 232 204 217 165 136 188 255 209 199 206 206 200 201 199 195 205 212 182 180 194 192 202 194 172 156 155 163 214 263 283 283 290 290 294 294 293
197 223 248 217 152 130 169 237 203 179 176 161 182 205 215 185 195 205 207 210 207 197 202 216 200 172 195 202 210 198 152 141 146 151 171 227 259 268 281 287 290 289 290 288
175 216 243 165 154 185 203 161 163 170 173 181 208 226 224 211 212 214 216 220 211 207 222 221 186 181 204 213 192 141 140 147 157 167 212 230 254 271 272 276 285 284 285 288
194 214 209 162 186 195 161 172 183 185 191 192 207 224 225 226 225 225 222 225 217 212 226 220 191 188 208 198 145 143 147 165 183 213 233 237 246 264 267 259 267 281 283 288
220 252 197 211 234 201 190 199 199 195 193 189 207 224 228 229 230 230 231 231 225 213 221 226 202 194 192 151 144 145 166 185 200 219 237 235 241 246 247 248 255 264 271 277
211 233 213 240 228 222 214 218 222 218 211 209 216 233 232 234 234 232 234 233 219 213 223 225 190 175 155 146 144 157 176 192 209 218 231 249 250 242 250 238 236 248 253 260
200 197 185 210 215 211 211 220 219 219 233 224 213 230 236 237 239 236 236 232 222 219 219 206 167 162 151 148 154 164 186 201 207 216 227 242 258 274 275 276 278 278 283 290
192 183 192 210 210 198 203 217 217 214 224 235 229 223 231 240 244 239 237 227 220 214 195 162 153 158 159 159 164 178 195 201 205 221 232 243 252 266 288 300 295 296 296 304
200 166 202 224 226 214 209 218 218 224 229 230 235 231 227 236 241 230 223 202 153 132 131 139 152 169 164 163 174 190 202 214 217 221 230 237 243 251 258 277 296 296 298 305
216 203 212 226 230 226 212 204 212 231 233 231 222 220 215 216 215 186 129 111 110 116 125 140 175 204 171 173 187 200 207 216 218 223 228 234 241 248 251 256 267 282 297 303
217 212 220 231 238 237 221 208 216 232 230 224 213 204 187 160 133 118 113 116 127 148 163 187 226 230 183 189 203 211 219 229 223 220 227 233 239 245 249 253 260 271 280 290
213 224 216 221 234 236 228 220 219 228 222 212 198 158 134 124 120 124 118 97 88 97 196 235 249 254 224 212 212 219 218 231 234 229 229 231 235 239 245 248 254 263 268 279
220 230 223 212 220 225 228 221 214 212 207 179 141 138 144 149 152 147 136 116 83 315 276 257 256 252 241 229 219 220 220 224 224 228 233 236 238 239 242 248 254 263 274 288
230 233 236 227 219 211 209 199 185 160 139 135 138 139 131 124 121 124 124 128 167 278 286 291 297 303 243 239 222 210 220 230 234 233 234 241 245 242 242 246 252 255 267 278
249 237 219 165 107 150 152 129 121 116 118 124 122 121 120 119 120 123 128 184 233 236 268 292 299 283 262 262 261 223 219 229 238 241 237 238 244 247 246 250 252 257 260 264
226 107 115 112 90 76 99 120 125 122 117 121 128 133 132 130 130 133 139 240 264 242 259 271 263 261 256 249 247 234 229 233 239 243 242 243 247 251 251 252 255 259 261 266
82 106 111 112 110 95 80 91 109 117 115 109 109 117 124 131 143 162 208 226 255 287 286 272 264 258 257 251 236 231 232 234 239 241 241 241 244 250 254 256 257 261 261 262
83 100 107 110 114 109 92 86 98 111 117 121 126 131 132 136 153 166 227 231 242 275 273 264 274 274 270 249 230 230 234 239 243 245 245 244 244 247 254 259 260 261 265 267
77 85 91 98 109 109 101 93 89 90 99 105 114 125 127 131 169 231 237 277 287 291 289 280 287 297 312 290 249 243 243 247 250 251 250 250 248 249 252 256 261 261 261 264
77 85 95 106 102 97 105 110 102 98 100 97 101 118 143 162 186 231 258 275 286 295 286 294 301 309 317 270 264 261 258 255 254 254 251 253 252 252 252 253 255 260 261 260
70 75 73 73 85 103 113 115 109 108 107 101 83 72 69 318 255 262 267 272 278 283 280 276 280 283 269 263 262 264 264 267 267 261 255 255 255 255 256 256 256 256 258 259
76 78 81 78 70 77 90 95 104 108 105 106 94 32 323 297 286 282 284 284 285 282 279 277 274 268 265 265 266 267 266 265 264 263 260 258 257 257 259 259 260 259 260 261